EW7354 Weather Reports


time (UTC)temp
F
wind
direction
speed
knots
gust
knots
rain 1hr
in
rain 24hr
in
rain mn
in
humidity
%
barometer
mb
20260508213007 81 266 0.9 2.6 0.00 0.00 0.00 17 1007.9
20260508211506 81 114 0.9 3.5 0.00 0.00 0.00 19 1008.2
20260508210003 81 188 0.0 3.5 0.00 0.00 0.00 19 1008.3
20260508204505 81 248 0.9 4.3 0.00 0.00 0.00 17 1008.4
20260508203001 81 97 0.9 3.5 0.00 0.00 0.00 18 1008.6
20260508201601 80 127 0.9 3.5 0.00 0.00 0.00 18 1008.8
20260508200058 80 135 0.0 3.5 0.00 0.00 0.00 19 1008.8
20260508194555 79 113 0.9 2.6 0.00 0.00 0.00 19 1008.8
20260508193126 78 129 0.0 3.5 0.00 0.00 0.00 21 1009.0
20260508191554 77 219 0.0 2.6 0.00 0.00 0.00 21 1009.2
20260508190055 77 276 0.9 4.3 0.00 0.00 0.00 20 1009.3
20260508184614 78 130 0.0 4.3 0.00 0.00 0.00 21 1009.4
20260508183054 78 124 0.0 1.7 0.00 0.00 0.00 22 1009.5
20260508181549 77 252 0.9 3.5 0.00 0.00 0.00 22 1009.6
20260508180057 77 293 0.0 2.6 0.00 0.00 0.00 22 1009.7
20260508174601 77 348 0.0 1.7 0.00 0.00 0.00 24 1009.9
20260508173041 76 91 0.0 1.7 0.00 0.00 0.00 25 1009.9
20260508171600 74 119 0.0 1.7 0.00 0.00 0.00 27 1009.8
20260508170040 74 124 0.0 1.7 0.00 0.00 0.00 29 1009.7
20260508164539 74 213 0.0 0.9 0.00 0.00 0.00 27 1009.7
20260508163036 74 129 0.0 0.9 0.00 0.00 0.00 27 1009.7
20260508161541 73 127 0.0 0.9 0.00 0.00 0.00 30 1009.7
20260508160035 72 83 0.0 0.9 0.00 0.00 0.00 31 1009.6
20260508154528 71 104 0.0 0.0 0.00 0.00 0.00 31 1009.7
20260508153035 70 72 0.0 0.9 0.00 0.00 0.00 30 1009.7
20260508151536 69 72 0.0 0.9 0.00 0.00 0.00 33 1009.7
20260508150026 70 72 0.0 0.9 0.00 0.00 0.00 32 1009.8
20260508144519 68 72 0.0 0.0 0.00 0.00 0.00 35 1009.7
20260508143015 64 72 0.0 0.0 0.00 0.00 0.00 38 1009.8
20260508141513 60 72 0.0 0.9 0.00 0.00 0.00 45 1009.7
20260508140008 54 72 0.0 0.0 0.00 0.00 0.00 58 1009.7
20260508134506 50 70 0.0 0.0 0.00 0.00 0.00 63 1009.6
20260508133003 50 70 0.0 0.0 0.00 0.00 0.00 58 1009.3
20260508131603 50 70 0.0 0.0 0.00 0.00 0.00 56 1009.2
20260508124658 50 309 0.0 0.9 0.00 0.00 0.00 54 1008.9
20260508123103 50 309 0.0 0.9 0.00 0.00 0.00 54 1008.7
20260508121559 50 309 0.0 0.0 0.00 0.00 0.00 54 1008.6
20260508120056 50 309 0.0 0.0 0.00 0.00 0.00 56 1008.6
20260508114554 50 309 0.0 0.0 0.00 0.00 0.00 57 1008.5
20260508113101 51 309 0.0 0.0 0.00 0.00 0.00 54 1008.5
20260508111557 52 309 0.0 0.0 0.00 0.00 0.00 54 1008.5
20260508110050 52 309 0.0 0.9 0.00 0.00 0.00 53 1008.6
20260508104551 51 108 0.0 0.0 0.00 0.00 0.00 55 1008.5
20260508103046 51 109 0.0 0.0 0.00 0.00 0.00 56 1008.4
20260508101548 52 109 0.0 0.9 0.00 0.00 0.00 54 1008.5
20260508100042 53 80 0.0 0.9 0.00 0.00 0.00 50 1008.3
20260508094542 53 80 0.0 0.9 0.00 0.00 0.00 51 1008.2
20260508093041 52 81 0.0 0.9 0.00 0.00 0.00 52 1008.1
20260508091606 52 80 0.0 0.0 0.00 0.00 0.00 53 1008.1
20260508090040 52 80 0.0 0.0 0.00 0.00 0.00 54 1008.1
20260508084536 53 81 0.0 0.0 0.00 0.00 0.00 53 1008.1
20260508083037 54 80 0.0 0.0 0.00 0.00 0.00 52 1008.2
20260508081531 54 81 0.0 0.9 0.00 0.00 0.00 52 1008.2
20260508080030 54 80 0.0 0.0 0.00 0.00 0.00 49 1008.2
20260508074525 56 80 0.0 0.9 0.00 0.00 0.00 45 1008.2
20260508073028 56 80 0.0 0.0 0.00 0.00 0.00 44 1008.0
20260508071530 56 81 0.0 0.0 0.00 0.00 0.00 45 1007.9
20260508070024 56 80 0.0 0.9 0.00 0.00 0.00 44 1008.0
20260508064531 56 61 0.0 0.9 0.00 0.00 0.00 44 1008.1
20260508063021 55 61 0.0 0.9 0.00 0.00 0.00 45 1008.1
20260508061519 56 60 0.0 0.0 0.00 0.00 0.00 45 1008.1
20260508060016 57 61 0.0 0.0 0.00 0.00 0.00 46 1008.1
20260508054515 57 61 0.0 0.0 0.00 0.00 0.00 44 1007.9
20260508053015 58 61 0.0 0.9 0.00 0.00 0.00 43 1007.8
20260508051517 58 3 0.0 0.9 0.00 0.00 0.00 42 1007.7
20260508050015 59 305 0.0 0.9 0.00 0.00 0.00 43 1007.7
20260508044514 60 305 0.0 2.6 0.00 0.00 0.00 39 1007.8
20260508043013 59 108 0.0 0.9 0.00 0.00 0.00 40 1007.7
20260508041518 59 107 0.0 0.0 0.00 0.00 0.00 39 1007.6
20260508040012 60 107 0.0 0.0 0.00 0.00 0.00 39 1007.6
20260508034518 60 108 0.0 0.0 0.00 0.00 0.00 38 1007.3
20260508033021 61 107 0.0 0.0 0.00 0.00 0.00 38 1007.4
20260508031510 62 107 0.0 0.9 0.00 0.00 0.00 37 1007.2
20260508030015 64 107 0.0 0.9 0.00 0.00 0.00 35 1007.0
20260508024515 65 107 0.0 0.0 0.00 0.00 0.00 34 1007.1
20260508023009 67 107 0.0 0.0 0.00 0.00 0.00 31 1007.0
20260508021508 69 108 0.0 0.0 0.00 0.00 0.00 30 1006.9
20260508020007 72 107 0.0 0.0 0.00 0.00 0.00 25 1006.8
20260508014512 75 107 0.0 0.0 0.00 0.00 0.00 23 1006.7
20260508013006 79 107 0.0 0.9 0.00 0.00 0.00 19 1006.8
20260508011505 82 108 0.0 0.9 0.00 0.00 0.00 18 1006.9
20260508010003 80 82 0.0 0.9 0.00 0.00 0.00 20 1007.0
20260508004600 78 117 0.0 0.9 0.00 0.00 0.00 22 1007.2
20260508003117 77 117 0.0 0.9 0.00 0.00 0.00 22 1007.3
20260508001601 75 117 0.0 0.9 0.00 0.00 0.00 24 1007.5
20260508000055 76 110 0.0 0.0 0.00 0.00 0.00 23 1007.7
20260507234554 78 127 0.0 0.9 0.00 0.00 0.00 23 1007.9
20260507233052 79 190 0.0 1.7 0.00 0.00 0.00 20 1007.9
20260507231552 81 124 0.0 1.7 0.00 0.00 0.00 19 1008.2
20260507230106 80 63 0.0 2.6 0.00 0.00 0.00 21 1008.5
20260507224547 81 119 0.0 1.7 0.00 0.00 0.00 20 1008.8
20260507223132 81 228 0.0 2.6 0.00 0.00 0.00 21 1009.0
20260507221544 81 138 0.0 1.7 0.00 0.00 0.00 20 1009.1
20260507220043 80 121 0.0 1.7 0.00 0.00 0.00 20 1009.2
20260507214551 80 262 0.0 2.6 0.00 0.00 0.00 21 1009.6